DateTime,F1_A11,F1_S11,BsB_S11,BsG_S11,BsR_S11,BbsB_S11,BbsG_S11,BbsR_S11,BaB_A11,BaG_A11,BaR_A11,T_S11,U_S11,P_S11,T1_A11
2016-07-28T00:00:00Z,0000380,20000600,,,,,,,,,,27.3,03.9,0680.4,34.6
2016-07-28T00:01:00Z,0000380,20000600,,,,,,,,,,27.3,03.9,0680.4,34.6
2016-07-28T00:02:00Z,0000380,20000600,,,,,,,,,,27.3,03.9,0680.4,34.6
2016-07-28T00:03:00Z,0000380,60000600,,,,,,,,,,27.4,03.9,0680.4,34.6
2016-07-28T00:04:00Z,0000380,40000600,0001.85,0001.16,0000.47,0000.58,0000.33,-000.05,-000.27,0000.16,-000.11,27.5,03.7,0681.3,34.6
2016-07-28T00:05:00Z,0000380,00000600,0001.97,0000.78,0000.33,0000.12,0000.43,-000.20,0000.03,-000.23,-000.03,27.5,03.5,0681.4,34.6
2016-07-28T00:06:00Z,0000380,00000600,0001.81,0000.37,0000.81,0000.09,0000.05,0000.19,0000.11,0000.04,0000.22,27.5,03.2,0681.4,34.6
2016-07-28T00:07:00Z,0000380,00000600,0001.20,0000.52,0000.76,0000.48,0000.05,0000.28,0000.07,0000.21,0000.05,27.5,03.1,0681.4,34.6
2016-07-28T00:08:00Z,0000380,00000600,0001.23,0000.96,0000.75,-000.28,0000.22,0000.00,0000.08,-000.03,-000.05,27.5,03.2,0681.4,34.6
2016-07-28T00:09:00Z,0000380,00000600,0002.15,0000.66,0001.04,-000.26,0000.33,0000.11,0000.10,0000.12,0000.22,27.5,03.2,0681.4,34.6
2016-07-28T00:10:00Z,0000380,00000600,0001.73,0001.35,0001.06,-000.31,0000.40,-000.25,-000.01,-000.26,-000.02,27.5,03.1,0681.4,34.6
2016-07-28T00:11:00Z,0000380,00000600,0001.89,0001.15,0000.77,-000.58,0000.22,0000.34,-000.09,0000.06,-000.21,27.5,02.9,0681.4,34.6
2016-07-28T00:12:00Z,0000380,00000600,0001.78,0000.91,0001.35,0000.53,0000.50,0000.45,-000.26,-000.10,-000.09,27.5,02.7,0681.4,34.6
2016-07-28T00:13:00Z,0000380,00000600,0001.54,0000.53,0000.55,-000.09,0000.17,-000.02,0000.08,-000.14,0000.07,27.5,02.5,0681.4,34.6
2016-07-28T00:14:00Z,0000380,00000600,0001.73,0000.82,0000.47,0000.03,0000.48,-000.25,0000.13,0000.16,-000.04,27.5,02.3,0681.4,34.6
2016-07-28T00:15:00Z,0000380,00000600,0002.27,0001.21,0000.51,0000.33,0000.29,0000.26,0000.51,0000.50,0000.42,27.5,02.5,0681.4,34.6
2016-07-28T00:16:00Z,0000380,00000600,0001.84,0001.12,0000.44,0000.30,0000.20,-000.22,0000.23,0000.19,0000.41,27.5,02.8,0681.4,34.6
2016-07-28T00:17:00Z,0000380,00000600,0001.92,0000.78,0000.80,-000.44,0000.08,0000.11,-000.16,0000.15,-000.48,27.5,02.9,0681.4,34.6
2016-07-28T00:18:00Z,0000380,00000600,0002.69,0000.89,0001.30,0000.06,0000.29,-000.06,0000.16,-000.13,0000.49,27.5,02.8,0681.4,34.6
2016-07-28T00:19:00Z,0000380,00000600,0002.34,0000.45,0000.88,0000.05,0000.08,0000.16,-000.03,0000.05,-000.12,27.5,02.7,0681.4,34.6
2016-07-28T00:20:00Z,0000380,00000600,0001.24,0000.84,0000.66,0000.34,0000.14,0000.03,0000.06,0000.03,-000.23,27.5,02.5,0681.4,34.6
2016-07-28T00:21:00Z,0000380,00000600,0001.72,0001.35,0000.86,-000.19,0000.48,-000.47,0000.15,0000.06,0000.27,27.5,02.6,0681.4,34.6
2016-07-28T00:22:00Z,0000380,00000600,0002.60,0001.18,0001.13,-000.08,0000.34,0000.34,0000.09,0000.11,-000.16,27.5,02.5,0681.4,34.6
2016-07-28T00:23:00Z,0000380,00000600,0001.93,0001.06,0001.03,0000.17,0000.73,-000.02,-000.18,0000.17,0000.26,27.5,02.5,0681.4,34.6
2016-07-28T00:24:00Z,0000380,00000600,0001.95,0001.09,0000.66,0000.23,0000.19,-000.50,0000.27,-000.13,-000.04,27.5,02.5,0681.4,34.6
2016-07-28T00:25:00Z,0000380,00000600,0002.11,0000.87,0000.91,0000.34,0000.33,0000.09,-000.09,-000.18,0000.02,27.5,02.4,0681.4,34.6
2016-07-28T00:26:00Z,0000380,00000600,0001.51,0000.82,0001.56,0000.06,0000.15,0000.11,-000.27,0000.05,-000.23,27.5,02.2,0681.4,34.6
2016-07-28T00:27:00Z,0000380,00000600,0001.45,0000.94,0000.96,-000.25,0000.12,-000.17,0000.18,0000.01,0000.19,27.5,02.1,0681.4,34.6
2016-07-28T00:28:00Z,0000380,00000600,0000.98,0000.63,0000.93,0000.26,0000.43,0000.23,0000.19,0000.17,-000.11,27.5,02.0,0681.4,34.6
2016-07-28T00:29:00Z,0000380,00000600,0002.17,0001.07,0001.02,-000.39,0000.26,0000.09,-000.02,0000.08,0000.03,27.5,02.1,0681.4,34.6
2016-07-28T00:30:00Z,0000380,00000600,0002.16,0001.67,0000.78,-000.12,0000.46,-000.19,0000.07,0000.08,0000.22,27.5,02.0,0681.4,34.6
2016-07-28T00:31:00Z,0000380,00000600,0002.20,0000.85,0000.64,0000.26,-000.15,0000.14,-000.03,-000.17,-000.21,27.5,01.9,0681.4,34.6
2016-07-28T00:32:00Z,0000380,00000600,0001.00,0000.98,0001.06,-000.59,0000.37,0000.19,-000.22,-000.19,-000.03,27.5,01.7,0681.4,34.6
2016-07-28T00:33:00Z,0000380,00000600,0002.31,0001.09,0000.88,0000.31,0000.29,-000.09,-000.06,-000.04,-000.03,27.5,01.5,0681.4,34.6
2016-07-28T00:34:00Z,0000380,00000600,0002.49,0001.28,0001.09,-000.40,0000.02,0000.31,0000.14,0000.29,-000.18,27.5,01.5,0681.4,34.6
2016-07-28T00:35:00Z,0000380,00000600,0001.70,0000.85,0001.40,-000.30,-000.12,0000.17,0000.27,0000.15,0000.22,27.5,01.6,0681.4,34.6
2016-07-28T00:36:00Z,0000380,00000600,0001.64,0001.12,0000.99,0000.42,0000.11,0000.19,0000.56,0000.31,0000.37,27.5,01.6,0681.4,34.6
2016-07-28T00:37:00Z,0000380,00000600,0001.85,0000.73,0001.13,-000.06,0000.36,-000.20,0000.00,0000.12,0000.27,27.5,01.8,0681.4,34.6
2016-07-28T00:38:00Z,0000380,00000600,0002.40,0001.41,0000.91,0000.65,0000.82,-000.23,-000.05,-000.03,-000.14,27.5,01.6,0681.4,34.6
2016-07-28T00:39:00Z,0000380,00000600,0001.60,0001.53,0001.09,0000.36,0000.34,-000.16,-000.00,-000.05,0000.00,27.5,01.5,0681.4,34.6
2016-07-28T00:40:00Z,0000380,00000600,0001.97,0001.46,0001.07,-000.05,0000.20,0000.17,-000.06,0000.13,0000.24,27.5,01.6,0681.4,34.6
2016-07-28T00:41:00Z,0000380,00000600,0001.71,0000.84,0000.24,-000.26,0000.02,0000.41,0000.30,0000.03,-000.15,27.5,01.6,0681.4,34.6
2016-07-28T00:42:00Z,0000380,00000600,0001.95,0001.14,0000.99,0000.54,0000.54,-000.30,0000.07,0000.06,0000.13,27.5,01.6,0681.4,34.6
2016-07-28T00:43:00Z,0000380,00000600,0001.69,0001.61,0000.62,-000.09,0000.06,-000.03,-000.08,0000.14,-000.04,27.5,01.5,0681.4,34.6
2016-07-28T00:44:00Z,0000380,01000600,0001.92,0001.31,0000.83,-000.05,0000.17,0000.05,0000.18,0000.03,-000.04,27.5,01.4,0681.4,34.6
2016-07-28T00:45:00Z,0000380,00000600,0002.62,0001.09,0001.46,-000.54,0000.11,0000.48,0000.27,0000.37,0000.47,27.5,01.5,0681.4,34.6
2016-07-28T00:46:00Z,0000380,00000600,0002.11,0001.11,0000.95,0000.03,0000.40,0000.26,0000.33,0000.24,-000.20,27.5,01.7,0681.4,34.6
2016-07-28T00:47:00Z,0000380,00000600,0002.26,0001.73,0000.78,0000.09,0000.15,-000.03,0000.15,-000.04,0000.27,27.5,01.7,0681.4,34.6
2016-07-28T00:48:00Z,0000380,00000600,0002.99,0001.39,0000.81,0000.05,0000.40,-000.33,-000.02,-000.01,-000.11,27.5,01.6,0681.4,34.6
2016-07-28T00:49:00Z,0000380,00000600,0002.73,0001.66,0001.27,0000.44,0000.50,0000.11,0000.02,0000.12,0000.11,27.5,01.5,0681.4,34.6
2016-07-28T00:50:00Z,0000380,00000600,0002.85,0001.50,0000.92,0000.20,0000.59,0000.02,0000.06,0000.03,0000.08,27.5,01.5,0681.4,34.6
2016-07-28T00:51:00Z,0000380,00000600,0002.51,0001.43,0001.05,0000.09,-000.03,-000.41,0000.03,0000.34,0000.22,27.5,01.6,0681.4,34.6
2016-07-28T00:52:00Z,0000380,00000600,0002.38,0001.41,0001.19,0000.61,0000.48,0000.25,0000.24,-000.17,0000.01,27.5,01.6,0681.4,34.6
2016-07-28T00:53:00Z,0000380,00000600,0002.74,0001.10,0000.81,0000.25,0000.15,0000.09,0000.05,0000.27,-000.04,27.5,01.6,0681.4,34.6
2016-07-28T00:54:00Z,0000380,00000600,0002.30,0001.25,0001.13,-000.28,0000.26,0000.03,0000.19,0000.03,0000.15,27.5,01.6,0681.4,34.6
2016-07-28T00:55:00Z,0000380,00000600,0002.35,0001.37,0001.06,0000.26,0000.09,0000.05,-000.09,0000.03,0000.08,27.5,01.6,0681.4,34.6
2016-07-28T00:56:00Z,0000380,00000600,0001.71,0002.20,0001.61,-000.22,0000.19,0000.03,0000.24,0000.04,0000.10,27.5,01.5,0681.4,34.6
2016-07-28T00:57:00Z,0000380,40000600,,,,,,,,,,,,0681.6,34.6
2016-07-28T00:58:00Z,0000380,60000600,,,,,,,,,,27.3,02.0,0680.4,34.6
2016-07-28T00:59:00Z,0000380,20000600,,,,,,,,,,27.3,01.8,0680.3,34.6
2016-07-28T01:00:00Z,0000380,20000600,,,,,,,,,,27.3,01.8,0680.3,34.6
2016-07-28T01:01:00Z,0000380,20000600,,,,,,,,,,27.3,01.7,0680.3,34.6
2016-07-28T01:02:00Z,0000380,20000600,,,,,,,,,,27.3,01.7,0680.3,34.6
2016-07-28T01:03:00Z,0000380,60000600,,,,,,,,,,27.4,01.7,0680.3,34.6
2016-07-28T01:04:00Z,0000380,40000600,0002.19,0001.66,0001.54,0000.12,0000.22,0000.09,0000.40,-000.00,-000.56,27.5,01.5,0681.3,34.6
2016-07-28T01:05:00Z,0000380,00000600,0002.18,0002.40,0000.75,0000.08,0000.12,-000.12,0000.01,0000.28,0000.41,27.5,01.5,0681.4,34.6
2016-07-28T01:06:00Z,0000380,00000600,0002.24,0001.88,0000.67,0000.22,0000.26,0000.59,0000.25,0000.20,0000.27,27.5,01.5,0681.4,34.6
2016-07-28T01:07:00Z,0000380,00000600,0002.45,0001.74,0001.06,0000.36,0000.09,0000.12,0000.29,-000.11,0000.05,27.5,01.6,0681.4,34.6
2016-07-28T01:08:00Z,0000380,00000600,0002.57,0001.50,0000.61,0000.11,0000.60,0000.17,0000.04,0000.37,-000.08,27.5,01.7,0681.4,34.6
2016-07-28T01:09:00Z,0000380,00000600,0002.04,0001.77,0000.97,-000.03,0000.19,0000.22,0000.18,0000.27,0000.30,27.5,01.7,0681.4,34.6
2016-07-28T01:10:00Z,0000380,00000600,0002.70,0001.43,0000.47,0000.17,0000.43,0000.06,-000.05,-000.10,-000.05,27.5,01.7,0681.4,34.6
2016-07-28T01:11:00Z,0000380,00000600,0001.32,0001.74,0000.73,0000.39,0000.43,0000.03,0000.66,0000.19,0000.17,27.5,01.8,0681.4,34.6
2016-07-28T01:12:00Z,0000380,00000600,0002.07,0001.83,0001.09,0000.26,-000.19,0000.19,-000.19,0000.13,0000.38,27.5,01.9,0681.4,34.6
2016-07-28T01:13:00Z,0000380,00000600,0001.66,0002.76,0000.91,-000.30,0000.40,0000.06,0000.05,0000.03,-000.10,27.5,01.8,0681.3,34.6
2016-07-28T01:14:00Z,0000380,00000600,0003.26,0001.68,0000.95,0000.08,0000.12,0000.51,0000.12,0000.14,0000.02,27.5,01.8,0681.3,34.6
2016-07-28T01:15:00Z,0000380,00000600,0001.59,0001.86,0000.76,-000.05,0000.16,0000.17,0000.21,0000.19,0000.09,27.5,01.9,0681.3,34.6
2016-07-28T01:16:00Z,0000380,00000600,0002.93,0001.98,0000.79,0000.30,0000.08,0000.30,0000.18,0000.15,0000.14,27.5,01.9,0681.3,34.6
2016-07-28T01:17:00Z,0000380,00000600,0002.98,0001.58,0000.78,0000.08,0000.14,0000.26,0000.01,-000.03,-000.06,27.5,01.8,0681.3,34.6
2016-07-28T01:18:00Z,0000380,00000600,0002.47,0001.48,0000.54,-000.36,0000.53,-000.05,0000.09,-000.06,0000.09,27.5,01.9,0681.3,34.6
2016-07-28T01:19:00Z,0000380,00000600,0002.54,0000.97,0000.77,-000.37,0000.20,0000.48,0000.32,0000.47,0000.39,27.5,01.9,0681.3,34.6
2016-07-28T01:20:00Z,0000380,00000600,0001.10,0001.56,0000.89,0000.06,0000.40,0000.00,-000.09,-000.07,0000.01,27.5,01.9,0681.4,34.6
2016-07-28T01:21:00Z,0000380,00000600,0002.41,0001.96,0001.15,-000.25,0000.40,0000.56,0000.15,0000.09,-000.14,27.5,01.9,0681.4,34.6
2016-07-28T01:22:00Z,0000380,00000600,0002.71,0001.41,0000.94,0000.25,0000.26,0000.20,0000.32,0000.36,0000.30,27.5,02.0,0681.4,34.6
2016-07-28T01:23:00Z,0000380,00000600,0001.46,0002.08,0000.95,0000.62,0000.43,0000.19,-000.02,-000.13,-000.14,27.5,01.9,0681.4,34.6
2016-07-28T01:24:00Z,0000380,00000600,0002.30,0001.78,0000.91,0000.00,-000.05,0000.42,0000.31,0000.16,0000.22,27.5,02.0,0681.4,34.6
2016-07-28T01:25:00Z,0000380,00000600,0002.44,0002.28,0000.88,0000.40,0000.08,-000.17,0000.06,0000.14,0000.14,27.5,02.0,0681.4,34.6
2016-07-28T01:26:00Z,0000380,00000600,0003.42,0001.45,0000.89,0000.37,0000.05,-000.11,0000.07,0000.11,0000.16,27.5,02.0,0681.4,34.6
2016-07-28T01:27:00Z,0000380,00000600,0001.92,0001.74,0000.94,0000.16,0000.34,0000.17,0000.31,0000.09,-000.11,27.5,01.9,0681.3,34.6
2016-07-28T01:28:00Z,0000380,00000600,0002.19,0001.67,0000.45,-000.09,0000.15,-000.06,-000.10,0000.14,0000.06,27.5,01.9,0681.4,34.6
2016-07-28T01:29:00Z,0000380,00000600,0002.59,0001.65,0000.54,0000.23,0000.03,0000.39,0000.19,-000.00,0000.37,27.5,01.9,0681.3,34.6
2016-07-28T01:30:00Z,0000380,00000600,0002.41,0001.70,0001.01,0000.39,0000.05,0000.12,0000.14,0000.36,0000.13,27.5,01.9,0681.3,34.6
2016-07-28T01:31:00Z,0000380,00000600,0002.49,0001.49,0001.08,-000.03,-000.11,0000.37,0000.17,-000.07,-000.23,27.5,01.9,0681.4,34.6
2016-07-28T01:32:00Z,0000380,00000600,0002.63,0001.86,0001.03,-000.12,0000.33,0000.08,0000.01,0000.29,0000.14,27.5,01.8,0681.3,34.6
2016-07-28T01:33:00Z,0000380,00000600,0002.58,0001.82,0000.70,-000.22,0000.68,0000.51,0000.14,-000.07,0000.30,27.5,01.9,0681.3,34.6
2016-07-28T01:34:00Z,0000380,00000600,0001.38,0001.85,0000.89,0000.14,0000.20,-000.02,0000.18,0000.09,-000.07,27.5,02.0,0681.3,34.6
2016-07-28T01:35:00Z,0000380,00000600,0002.37,0002.25,0000.05,-000.08,0000.19,0000.12,-000.18,0000.03,0000.21,27.6,01.8,0681.3,34.6
2016-07-28T01:36:00Z,0000380,00000600,0002.32,0001.07,0000.80,0000.61,0000.20,0000.00,0000.37,0000.20,0000.05,27.6,01.8,0681.3,34.6
2016-07-28T01:37:00Z,0000380,00000600,0001.92,0001.08,0000.39,0000.08,-000.09,-000.05,0000.06,0000.06,-000.08,27.6,01.8,0681.3,34.6
2016-07-28T01:38:00Z,0000380,00000600,0002.50,0001.35,0000.35,-000.12,0000.11,-000.23,0000.11,-000.01,0000.17,27.6,01.8,0681.3,34.6
2016-07-28T01:39:00Z,0000380,00000600,0002.41,0001.90,0001.03,-000.06,0000.33,0000.45,0000.13,0000.10,-000.11,27.6,01.7,0681.3,34.6
2016-07-28T01:40:00Z,0000380,00000600,0001.52,0001.59,0000.60,-000.16,0000.25,0000.53,-000.11,0000.08,0000.14,27.6,01.7,0681.3,34.6
2016-07-28T01:41:00Z,0000380,00000600,0002.29,0001.88,0000.85,0000.06,0000.39,0000.56,0000.13,0000.17,0000.05,27.6,01.7,0681.3,34.6
2016-07-28T01:42:00Z,0000380,00000600,0001.96,0000.83,0000.81,0000.11,0000.03,0000.33,0000.23,0000.00,-000.04,27.6,01.6,0681.3,34.6
2016-07-28T01:43:00Z,0000380,00000600,0002.95,0001.76,0000.63,0000.02,0000.42,0000.14,-000.01,0000.22,0000.10,27.5,01.7,0681.3,34.6
2016-07-28T01:44:00Z,0000380,00000600,0001.75,0001.22,0000.82,0000.51,0000.23,0000.45,0000.10,-000.11,0000.03,27.6,01.6,0681.3,34.6
2016-07-28T01:45:00Z,0000380,00000600,0001.44,0001.64,0000.81,-000.09,0000.34,0000.14,0000.06,0000.09,0000.17,27.6,01.6,0681.3,34.6
2016-07-28T01:46:00Z,0000380,00000600,0002.45,0001.42,0000.23,-000.48,-000.02,0000.16,0000.08,-000.05,0000.14,27.5,01.6,0681.3,34.6
2016-07-28T01:47:00Z,0000380,00000600,0002.59,0001.71,0000.89,-000.37,0000.11,0000.19,-000.01,0000.18,-000.04,27.5,01.6,0681.3,34.6
2016-07-28T01:48:00Z,0000380,00000600,0002.93,0001.77,0000.88,0000.11,-000.08,0000.39,0000.16,0000.21,0000.04,27.5,01.6,0681.3,34.6
2016-07-28T01:49:00Z,0000380,00000600,0001.97,0001.70,0001.08,0000.70,-000.14,0000.11,0000.22,-000.03,0000.05,27.5,01.6,0681.3,34.6
2016-07-28T01:50:00Z,0000380,00000600,0001.96,0001.46,0001.33,0000.02,0000.26,0000.20,0000.01,0000.25,0000.05,27.5,01.6,0681.3,34.6
2016-07-28T01:51:00Z,0000380,00000600,0001.80,0001.69,0001.29,0000.14,0000.03,0000.62,0000.11,0000.04,0000.10,27.5,01.6,0681.3,34.6
2016-07-28T01:52:00Z,0000380,00000600,0001.69,0001.32,0000.83,0000.00,0000.03,-000.06,0000.17,0000.09,0000.37,27.5,01.5,0681.3,34.6
2016-07-28T01:53:00Z,0000380,00000600,0002.42,0001.63,0000.56,0000.19,0000.03,-000.02,0000.03,0000.09,-000.06,27.5,01.6,0681.3,34.6
2016-07-28T01:54:00Z,0000380,00000600,0001.91,0001.62,0000.92,0000.09,-000.03,0000.41,0000.28,0000.15,0000.15,27.5,01.6,0681.3,34.6
2016-07-28T01:55:00Z,0000380,00000600,0001.60,0001.24,0000.82,0000.72,0000.12,0000.30,0000.04,0000.17,-000.13,27.5,01.6,0681.3,34.6
2016-07-28T01:56:00Z,0000380,00000600,0001.84,0002.15,0000.51,-000.09,0000.23,0000.41,0000.22,0000.07,0000.03,27.5,01.7,0681.3,34.6
2016-07-28T01:57:00Z,0000380,40000600,,,,,,,,,,,,0681.2,34.6
2016-07-28T01:58:00Z,0000380,60000600,,,,,,,,,,27.3,01.8,0680.3,34.6
2016-07-28T01:59:00Z,0000380,20000600,,,,,,,,,,27.3,01.7,0680.2,34.6
2016-07-28T02:00:00Z,0000380,20000600,,,,,,,,,,27.3,01.7,0680.2,34.6
2016-07-28T02:01:00Z,0000380,20000600,,,,,,,,,,27.3,01.7,0680.2,34.6
2016-07-28T02:02:00Z,0000380,20000600,,,,,,,,,,27.3,01.7,0680.2,34.6
2016-07-28T02:03:00Z,0000380,60000600,,,,,,,,,,27.4,01.7,0680.2,34.6
2016-07-28T02:04:00Z,0000380,40000600,0002.37,0001.02,0001.07,0000.76,-000.03,0000.34,0000.12,0000.08,-000.32,27.5,01.8,0681.2,34.6
2016-07-28T02:05:00Z,0000380,00000600,0001.37,0001.22,0000.39,0000.26,0000.08,-000.02,0000.08,0000.11,0000.36,27.5,01.8,0681.2,34.6
2016-07-28T02:06:00Z,0000380,00000600,0002.37,0001.98,0000.84,-000.33,0000.14,-000.05,0000.11,0000.13,0000.20,27.5,01.7,0681.2,34.6
2016-07-28T02:07:00Z,0000380,00000600,0002.30,0001.76,0000.80,0000.05,0000.28,0000.23,0000.04,-000.03,-000.23,27.5,01.7,0681.2,34.6
2016-07-28T02:08:00Z,0000380,00000600,0001.89,0001.04,0000.75,-000.47,-000.34,0000.19,0000.35,0000.28,0000.39,27.5,01.7,0681.2,34.6
2016-07-28T02:09:00Z,0000380,00000600,0001.85,0001.76,0000.96,0000.69,0000.17,0000.08,0000.15,0000.17,0000.13,27.5,01.7,0681.2,34.6
2016-07-28T02:10:00Z,0000380,00000600,0002.63,0001.05,0001.19,-000.23,0000.40,0000.42,0000.10,-000.01,-000.17,27.5,01.8,0681.2,34.6
2016-07-28T02:11:00Z,0000380,00000600,0002.58,0000.97,0000.83,-000.09,0000.19,0000.45,-000.04,0000.07,0000.21,27.5,01.8,0681.2,34.6
2016-07-28T02:12:00Z,0000380,00000600,0002.24,0001.40,0000.93,0000.40,-000.08,0000.28,0000.12,0000.18,0000.12,27.5,01.8,0681.2,34.6
2016-07-28T02:13:00Z,0000380,00000600,0001.69,0001.67,0001.10,0000.54,0000.23,0000.20,0000.22,0000.08,-000.03,27.5,01.8,0681.2,34.6
2016-07-28T02:14:00Z,0000380,00000600,0001.69,0001.38,0001.18,-000.03,0000.29,0000.23,-000.12,0000.06,0000.10,27.5,01.7,0681.2,34.6
2016-07-28T02:15:00Z,0000380,00000600,0002.05,0000.76,0000.80,0000.65,0000.00,0000.02,0000.33,0000.18,0000.24,27.5,01.8,0681.2,34.6
2016-07-28T02:16:00Z,0000380,00000600,0002.15,0001.89,0000.71,0000.22,0000.25,0000.08,0000.20,0000.30,-000.01,27.5,01.9,0681.2,34.6
2016-07-28T02:17:00Z,0000380,00000600,0002.00,0001.74,0001.47,0000.53,0000.31,0000.42,-000.14,0000.03,0000.06,27.5,01.9,0681.2,34.6
2016-07-28T02:18:00Z,0000380,00000600,0001.88,0001.21,0000.86,0000.00,0000.53,-000.22,0000.31,0000.09,0000.08,27.5,01.9,0681.2,34.6
2016-07-28T02:19:00Z,0000380,00000600,0001.92,0001.20,0000.38,0000.53,0000.19,0000.09,0000.10,0000.09,0000.09,27.5,01.9,0681.2,34.6
2016-07-28T02:20:00Z,0000380,00000600,0002.15,0001.11,0000.72,-000.50,0000.54,0000.17,0000.18,0000.16,-000.08,27.5,02.0,0681.2,34.6
2016-07-28T02:21:00Z,0000380,00000600,0002.07,0001.21,0001.05,0000.56,0000.09,0000.31,-000.07,0000.16,0000.45,27.5,02.0,0681.2,34.6
2016-07-28T02:22:00Z,0000380,00000600,0001.90,0001.22,0000.86,-000.17,0000.28,0000.34,0000.12,0000.20,-000.03,27.5,02.1,0681.2,34.6
2016-07-28T02:23:00Z,0000380,00000600,0001.56,0001.22,0000.91,0000.44,0000.40,0000.20,0000.22,-000.06,0000.34,27.5,02.0,0681.2,34.6
2016-07-28T02:24:00Z,0000380,00000600,0001.46,0001.90,0000.81,0000.65,0000.28,0000.28,0000.20,0000.05,-000.21,27.5,01.9,0681.2,34.6
2016-07-28T02:25:00Z,0000380,00000600,0002.21,0001.63,0000.75,0000.08,0000.20,0000.31,0000.07,0000.11,0000.14,27.5,02.0,0681.2,34.6
2016-07-28T02:26:00Z,0000380,00000600,0002.09,0000.98,0000.77,0000.16,0000.59,0000.36,0000.14,0000.34,0000.05,27.5,02.0,0681.2,34.6
2016-07-28T02:27:00Z,0000380,00000600,0001.23,0001.63,0000.61,0000.73,-000.02,0000.05,-000.09,-000.09,-000.00,27.5,02.0,0681.2,34.6
2016-07-28T02:28:00Z,0000380,00000600,0001.89,0001.54,0001.41,0000.03,0000.70,0000.11,0000.44,0000.09,0000.12,27.5,01.9,0681.2,34.6
2016-07-28T02:29:00Z,0000380,00000600,0001.82,0001.17,0000.59,-000.12,0000.19,0000.12,-000.09,0000.11,0000.23,27.5,02.0,0681.2,34.6
2016-07-28T02:30:00Z,0000380,00000600,0003.09,0001.41,0000.47,0000.26,-000.02,0000.23,0000.17,0000.13,-000.06,27.5,01.9,0681.2,34.6
2016-07-28T02:31:00Z,0000380,00000600,0002.32,0001.34,0000.92,-000.36,0000.14,-000.14,0000.25,-000.02,0000.15,27.5,01.9,0681.1,34.6
2016-07-28T02:32:00Z,0000380,00000600,0002.67,0001.27,0000.75,-000.28,0000.03,-000.11,-000.03,0000.16,-000.08,27.5,01.9,0681.1,34.6
2016-07-28T02:33:00Z,0000380,00000600,0001.93,0001.04,0000.96,-000.22,-000.16,0000.03,0000.06,0000.07,0000.06,27.5,02.0,0681.1,34.6
2016-07-28T02:34:00Z,0000380,00000600,0002.93,0001.72,0001.06,0000.28,0000.37,-000.28,0000.10,0000.08,0000.21,27.5,01.9,0681.1,34.6
2016-07-28T02:35:00Z,0000380,00000600,0002.06,0001.80,0000.64,0000.64,0000.50,0000.17,0000.06,0000.20,-000.21,27.5,01.9,0681.1,34.6
2016-07-28T02:36:00Z,0000380,00000600,0002.40,0001.42,0000.78,0000.34,-000.36,0000.23,0000.02,0000.10,0000.38,27.5,01.9,0681.1,34.6
2016-07-28T02:37:00Z,0000380,00000600,0002.58,0001.67,0000.95,-000.12,-000.16,0000.20,0000.40,0000.08,0000.00,27.5,01.9,0681.1,34.6
2016-07-28T02:38:00Z,0000388,00000608,0002.41,0001.63,0000.48,0000.47,-000.19,0000.19,-000.26,0000.01,-000.02,27.5,01.9,0681.2,34.6
2016-07-28T02:39:00Z,0000388,00000608,0003.19,0001.34,0000.91,0000.00,0000.06,0000.00,0000.38,0000.19,0000.22,27.5,02.0,0681.1,34.6
2016-07-28T02:40:00Z,0000388,00000608,0002.96,0001.11,0000.80,0000.36,0000.31,-000.11,-000.03,-000.02,0000.03,27.5,02.0,0681.1,34.6
2016-07-28T02:41:00Z,0000388,00000608,0002.12,0001.24,0000.73,0000.30,0000.00,0000.19,0000.19,0000.03,0000.32,27.5,01.9,0681.1,34.6
2016-07-28T02:42:00Z,0000388,00000608,0001.70,0001.29,0001.00,-000.11,0000.42,0000.20,0000.11,0000.18,-000.16,27.5,01.9,0681.2,34.6
2016-07-28T02:43:00Z,0000388,00000608,0002.04,0002.09,0000.60,-000.50,0000.28,0000.00,0000.03,0000.14,0000.25,27.5,01.9,0681.1,34.6
2016-07-28T02:44:00Z,0000388,00000608,0002.56,0001.48,0000.65,0000.53,0000.25,0000.12,0000.28,0000.00,-000.17,27.5,02.0,0681.1,34.6
2016-07-28T02:45:00Z,0000388,00000608,0000.82,0000.98,0000.38,-000.08,-000.67,-000.09,-000.00,0000.22,0000.19,27.5,02.0,0681.1,34.6
2016-07-28T02:46:00Z,0000388,00000608,0002.18,0001.00,0000.81,0000.22,0000.36,0000.28,-000.01,0000.07,0000.24,27.5,02.0,0681.1,34.6
2016-07-28T02:47:00Z,0000388,00000608,0002.03,0001.98,0000.94,0000.42,0000.20,-000.06,0000.07,0000.08,-000.05,27.5,01.9,0681.1,34.6
2016-07-28T02:48:00Z,0000388,00000608,0002.30,0001.45,0000.69,-000.34,0000.11,0000.30,0000.25,0000.26,0000.19,27.5,02.0,0681.1,34.6
2016-07-28T02:49:00Z,0000388,00000608,0002.76,0001.74,0001.01,0000.40,-000.08,0000.02,0000.08,0000.04,0000.04,27.5,02.0,0681.1,34.6
2016-07-28T02:50:00Z,0000388,00000608,0001.21,0000.92,0000.56,0000.11,-000.05,0000.22,0000.31,0000.17,-000.12,27.5,02.0,0681.1,34.6
2016-07-28T02:51:00Z,0000388,00000608,0002.44,0001.24,0001.16,-000.26,0000.53,0000.47,-000.12,-000.03,0000.22,27.5,01.9,0681.1,34.6
2016-07-28T02:52:00Z,0000388,00000608,0002.81,0002.16,0000.81,-000.05,0000.14,-000.05,0000.23,0000.19,0000.05,27.5,02.0,0681.1,34.6
2016-07-28T02:53:00Z,0000388,00000608,0001.99,0001.06,0000.97,0000.30,-000.09,0000.25,0000.17,-000.02,0000.01,27.5,02.0,0681.1,34.6
2016-07-28T02:54:00Z,0000388,00000608,0002.42,0001.53,0000.95,0000.26,0000.02,0000.00,0000.16,0000.20,0000.30,27.5,02.0,0681.1,34.6
2016-07-28T02:55:00Z,0000388,00000608,0001.88,0001.52,0000.49,0000.39,0000.25,0000.19,-000.05,0000.00,-000.13,27.5,02.1,0681.1,34.6
2016-07-28T02:56:00Z,0000388,00000608,0002.54,0001.34,0000.45,0000.73,-000.03,-000.31,0000.06,0000.23,0000.14,27.5,02.1,0681.1,34.6
2016-07-28T02:57:00Z,0000388,40000608,,,,,,,,,,,,0680.8,34.6
2016-07-28T02:58:00Z,0000388,60000608,,,,,,,,,,27.3,02.0,0680.1,34.6
2016-07-28T02:59:00Z,0000388,20000608,,,,,,,,,,27.3,02.0,0680.0,34.6
2016-07-28T03:00:00Z,0000388,20000608,,,,,,,,,,27.3,02.0,0680.1,34.6
2016-07-28T03:01:00Z,0000388,20000608,,,,,,,,,,27.3,02.0,0680.1,34.6
2016-07-28T03:02:00Z,0000388,20000608,,,,,,,,,,27.3,01.9,0680.1,34.6
2016-07-28T03:03:00Z,0000388,60000608,,,,,,,,,,27.3,01.8,0680.1,34.6
2016-07-28T03:04:00Z,0000388,40000608,0002.21,0001.59,0001.24,0000.11,0000.42,0000.08,0000.14,-000.13,0000.10,27.5,01.8,0681.0,34.6
2016-07-28T03:05:00Z,0000388,00000608,0001.69,0001.16,0000.94,-000.58,0000.26,0000.31,0000.05,0000.22,0000.08,27.4,01.9,0681.1,34.6
2016-07-28T03:06:00Z,0000388,00000608,0001.86,0001.71,0001.97,-000.31,-000.09,0000.09,0000.20,0000.03,0000.10,27.5,01.9,0681.1,34.6
2016-07-28T03:07:00Z,0000388,00000608,0002.18,0002.03,0001.12,0000.26,0000.34,0000.45,0000.16,0000.12,-000.06,27.5,01.9,0681.1,34.6
2016-07-28T03:08:00Z,0000388,00000608,0002.54,0001.26,0001.16,0000.33,0000.11,0000.39,0000.20,0000.21,0000.51,27.5,01.9,0681.1,34.6
2016-07-28T03:09:00Z,0000388,00000608,0001.07,0001.80,0001.08,0000.22,0000.25,0000.12,0000.17,0000.20,-000.06,27.5,01.9,0681.1,34.6
2016-07-28T03:10:00Z,0000388,00000608,0001.39,0001.52,0001.13,0000.92,-000.36,0000.08,-000.15,-000.08,-000.19,27.5,02.0,0681.1,34.6
2016-07-28T03:11:00Z,0000388,00000608,0002.45,0001.84,0000.57,0000.28,0000.23,0000.50,0000.01,0000.08,0000.23,27.5,02.0,0681.1,34.6
2016-07-28T03:12:00Z,0000388,00000608,0001.29,0002.02,0000.88,-000.40,0000.45,0000.42,0000.36,0000.15,0000.03,27.5,01.9,0681.1,34.6